User: anonymous   Login
Location: UBC Liquid-Mirror Observatory
(49.2876°N, 122.5728°W)
Time: 00:25:45
(UTC-07:00)
Language:

Cosmos 1315 - Orbit

View from above orbital plane
View from above orbital plane
View from above satellite
View from above satellite

Ground track
Ground track

The orbit data is extracted from the following two-line orbital elements,

1 12903U 81103A   15215.86516942  .00227904  19752-4  49045-3 0  9990
2 12903 081.1143 351.6766 0005968 251.5486 232.5135 15.98393261854799
Epoch (UTC): 03 August 2015 20:45:50
Eccentricity: 0.0005968
inclination: 81.1143°
perigee height: 275 km
apogee height: 283 km
right ascension of ascending node: 351.6766°
argument of perigee: 251.5486°
revolutions per day: 15.98393261
mean anomaly at epoch: 232.5135°
orbit number at epoch: 85479

The dashed part of the orbit path shows where the satellite is in the earth's shadow,  

DLR